[[{"header":{"parameterUnit":"m.s-1","parameterCategory":2,"la1":30.2991,"la2":30.254,"lo1":-89.0895,"lo2":-89.0444,"dy":0.0017,"dx":0.0017,"nx":28,"ny":28,"refTime":"2024-09-01T21:00:00:Z","depth":"0","parameterNumber":2,"parameterNumberName":"U-component_of_CURRENTS"},"data":[0,0,0,0,0,0,0,0,0,0,0,0,0,0,0,0,0,0,0,0,0,0,0,0,0,0,0,0,0,0,0,0,0,0,0,0,0,0,0,0,0,0,0,0,0,0,0,0,0,0,0,0,0,0,0,0,0,0,-0.3291,-0.3292,0,-0.3307,-0.3307,-0.3307,-0.3242,-0.3241,-0.3239,-0.3238,-0.3105,-0.3103,-0.3101,0,0,0,0,0,0,0,0,0,0,0,0,0,-0.3194,-0.3196,-0.3291,-0.3292,-0.3293,-0.3307,-0.3307,-0.3307,-0.3242,-0.3241,-0.3239,-0.3237,-0.3105,-0.3103,-0.31,0,0,0,0,0,0,0,0,0,0,0,0,0,-0.3222,-0.3197,-0.3291,-0.3266,-0.3264,-0.3307,-0.3307,-0.3307,-0.3243,-0.324,-0.3238,-0.3236,-0.3106,-0.3103,-0.31,-0.3125,0,0,-0.309,-0.3089,0,0,0,0,0,0,0,0,-0.322,-0.3225,-0.3269,-0.3267,-0.3266,-0.3274,-0.3224,-0.324,-0.3243,-0.3246,-0.3238,-0.3235,-0.3152,-0.3145,-0.3149,-0.3119,-0.3113,-0.309,-0.3088,-0.3087,-0.3086,0,0,0,0,0,0,0,-0.3218,-0.3224,-0.3293,-0.327,-0.3268,-0.325,-0.3251,-0.3227,-0.3205,-0.3245,-0.3242,-0.3252,-0.3149,-0.3152,-0.3145,-0.3111,-0.309,-0.3087,-0.3085,-0.3084,-0.3036,-0.3037,0,0,0,0,0,0,-0.3229,-0.3222,-0.3293,-0.3294,-0.3242,-0.3254,-0.3255,-0.327,-0.3209,-0.32,-0.3254,-0.3249,-0.3159,-0.3149,-0.314,-0.313,-0.3087,-0.3084,-0.3082,-0.3036,-0.3036,-0.3037,0,0,0,0,0,0,-0.3227,-0.3236,-0.3292,-0.3261,-0.3268,-0.3258,-0.3276,-0.3272,-0.3266,-0.3217,-0.3204,-0.3251,-0.3157,-0.3144,-0.3109,-0.3125,-0.3082,-0.3079,-0.3035,-0.3036,-0.3037,-0.3134,0,0,0,0,0,0,-0.3224,-0.3235,-0.3245,-0.3263,-0.327,-0.3311,-0.3278,-0.3274,-0.3278,-0.3271,-0.3211,-0.3197,-0.3154,-0.3114,-0.3105,-0.312,-0.3077,-0.3034,-0.3035,-0.3036,-0.313,-0.3138,-0.3145,0,0,0,0,0,-0.3221,-0.3249,-0.3246,-0.3254,-0.3286,-0.3313,-0.3314,-0.3296,-0.328,-0.3281,-0.3238,-0.3198,-0.3115,-0.3112,-0.3102,-0.3116,-0.3033,-0.3035,-0.3036,-0.3126,-0.3136,-0.3145,0,0,0,0,0,0,-0.3205,-0.3246,-0.3242,-0.3278,-0.3291,-0.3303,-0.3312,-0.3305,-0.3278,-0.3265,-0.3209,-0.3193,-0.317,-0.3131,-0.3129,-0.3105,-0.3068,-0.3067,-0.3139,-0.3148,-0.3156,-0.3155,-0.3074,0,0,0,0,0,-0.3213,-0.3242,-0.3269,-0.3293,-0.3307,-0.3311,-0.3319,-0.3312,-0.3298,-0.3285,-0.3244,-0.3201,-0.3175,-0.315,-0.3118,-0.3107,-0.3071,-0.3108,-0.3116,-0.3123,-0.3115,-0.3097,-0.3103,-0.3042,-0.3042,-0.3042,0,0,-0.321,-0.3239,-0.3251,-0.3292,-0.3302,-0.333,-0.3308,-0.3329,-0.3338,-0.3275,-0.3261,-0.3228,-0.3179,-0.3165,-0.3151,-0.3129,-0.3121,-0.3125,-0.3131,-0.3119,-0.31,-0.3106,-0.3111,-0.3043,-0.3043,-0.3043,0,0,-0.3226,-0.325,-0.3279,-0.3304,-0.3335,-0.3344,-0.3352,-0.3365,-0.3353,-0.3348,-0.3307,-0.3281,-0.3238,-0.3208,-0.3188,-0.3219,-0.3167,-0.3211,-0.3243,-0.3228,-0.3233,-0.3237,-0.3201,-0.32,-0.321,-0.321,-0.321,0,-0.321,-0.3259,-0.3288,-0.3327,-0.3347,-0.3353,-0.3381,-0.3387,-0.3379,-0.3373,-0.3346,-0.33,-0.3258,-0.3247,-0.3253,-0.3236,-0.3212,-0.3217,-0.324,-0.3243,-0.3245,-0.3206,-0.3205,-0.3215,-0.3214,-0.3214,-0.3213,0,-0.325,-0.3288,-0.3311,-0.3361,-0.339,-0.3415,-0.344,-0.3447,-0.3436,-0.3433,-0.3416,-0.3368,-0.3333,-0.3328,-0.3296,-0.3299,-0.3271,-0.3259,-0.3221,-0.3257,-0.3214,-0.3211,-0.3222,-0.322,-0.3219,-0.3218,0,0,-0.3181,-0.3311,-0.331,-0.3342,-0.3407,-0.3428,-0.3467,-0.3488,-0.3498,-0.3484,-0.3483,-0.3449,-0.3424,-0.3398,-0.3364,-0.3346,-0.3344,-0.3312,-0.3309,-0.3282,-0.3297,-0.3227,-0.3216,-0.3344,-0.3344,-0.3344,-0.3261,0,-0.3179,-0.3264,-0.333,-0.3384,-0.342,-0.3465,-0.3501,-0.3528,-0.3528,-0.353,-0.3499,-0.3481,-0.3453,-0.3433,-0.3419,-0.3357,-0.3339,-0.3366,-0.3258,-0.3254,-0.3194,-0.3211,-0.305,-0.2959,-0.3258,-0.3257,-0.3257,0,-0.3161,-0.3229,-0.3295,-0.3399,-0.3418,-0.3454,-0.3501,-0.3534,-0.3563,-0.3564,-0.3558,-0.3535,-0.3505,-0.3476,-0.3401,-0.3421,-0.3368,-0.3322,-0.3317,-0.3211,-0.3178,-0.2968,-0.2941,-0.2924,-0.3251,-0.3251,-0.3252,0,-0.3069,-0.3184,-0.3234,-0.3269,-0.3394,-0.3422,-0.3475,-0.3529,-0.3552,-0.3574,-0.3578,-0.356,-0.3523,-0.3477,-0.3395,-0.3396,-0.3308,-0.3295,-0.3182,-0.3176,-0.2993,-0.2971,-0.2937,-0.3251,-0.3251,-0.3251,-0.3251,0,-0.3022,-0.3049,-0.3195,-0.3223,-0.3267,-0.3376,-0.3417,-0.3463,-0.3531,-0.3518,-0.3577,-0.3529,-0.3522,-0.3473,-0.3408,-0.328,-0.3319,-0.3179,-0.3151,-0.3022,-0.3004,-0.2943,-0.2957,-0.3248,-0.3249,-0.3249,-0.325,0,-0.2892,-0.2996,-0.3052,-0.3192,-0.3225,-0.3248,-0.338,-0.34,-0.349,-0.347,-0.3475,-0.3502,-0.3408,-0.3406,-0.3309,-0.3268,-0.3103,-0.3126,-0.2969,-0.2925,-0.2785,-0.2809,-0.2689,-0.2631,-0.2964,-0.2962,-0.296,0,-0.2831,-0.2853,-0.299,-0.3012,-0.3068,-0.3142,-0.318,-0.333,-0.3342,-0.3395,-0.3345,-0.3327,-0.3233,-0.3137,-0.3061,-0.2969,-0.2966,-0.2799,-0.277,-0.275,-0.2757,-0.2765,-0.2727,-0.2561,-0.2556,-0.2552,-0.2548,0,-0.2693,-0.2743,-0.2797,-0.2857,-0.2901,-0.2955,-0.302,-0.3044,-0.3156,-0.315,-0.3074,-0.3029,-0.2963,-0.28,-0.2775,-0.2692,-0.2713,-0.271,-0.2722,-0.2463,-0.2432,-0.2371,-0.2649,-0.2512,-0.2516,-0.2518,-0.252,-0.2522,-0.255,-0.2553,-0.2628,-0.2656,-0.2707,-0.2709,-0.2685,-0.2752,-0.2739,-0.268,-0.2741,-0.2639,-0.2596,-0.2503,-0.2463,-0.2356,-0.2413,-0.2268,-0.2303,-0.232,-0.2249,-0.2449,-0.2273,-0.2275,-0.2277,-0.2279,-0.228,0,-0.2344,-0.2379,-0.2416,-0.2443,-0.2403,-0.2503,-0.2512,-0.2448,-0.2338,-0.2361,-0.2283,-0.2235,-0.2121,-0.2148,-0.2075,-0.2,-0.197,-0.1953,-0.1926,-0.1912,-0.209,-0.206,-0.1789,-0.1789,-0.1789,-0.1789,-0.1789,-0.1789,-0.2238,-0.2193,-0.2228,-0.211,-0.212,-0.2,-0.1956,-0.1897,-0.1889,-0.1791,-0.1796,-0.1873,-0.1912,-0.2005,-0.1912,-0.1822,-0.1797,-0.1686,-0.1784,-0.192,-0.1954,-0.1985,-0.1961,-0.1674,-0.1674,-0.1511,-0.1509,-0.1509]},{"header":{"parameterUnit":"m.s-1","parameterCategory":2,"la1":30.2991,"la2":30.254,"lo1":-89.0895,"lo2":-89.0444,"dy":0.0017,"dx":0.0017,"nx":28,"ny":28,"refTime":"2024-09-01T21:00:00:Z","depth":"0","parameterNumber":3,"parameterNumberName":"V-component_of_CURRENTS"},"data":[0,0,0,0,0,0,0,0,0,0,0,0,0,0,0,0,0,0,0,0,0,0,0,0,0,0,0,0,0,0,0,0,0,0,0,0,0,0,0,0,0,0,0,0,0,0,0,0,0,0,0,0,0,0,0,0,0,0,-0.0339,-0.0339,0,-0.0302,-0.0302,-0.0301,-0.0298,-0.0299,-0.0299,-0.03,-0.0262,-0.026,-0.0259,0,0,0,0,0,0,0,0,0,0,0,0,0,-0.0331,-0.0331,-0.0339,-0.0339,-0.0338,-0.0302,-0.0302,-0.0301,-0.0298,-0.0299,-0.0299,-0.03,-0.0262,-0.0261,-0.0259,0,0,0,0,0,0,0,0,0,0,0,0,0,-0.0318,-0.0332,-0.0339,-0.0333,-0.0332,-0.0302,-0.0302,-0.0301,-0.0298,-0.0299,-0.0299,-0.03,-0.0263,-0.0261,-0.0259,-0.0231,0,0,-0.0252,-0.0251,0,0,0,0,0,0,0,0,-0.0318,-0.0318,-0.0334,-0.0334,-0.0333,-0.0306,-0.0285,-0.0278,-0.0298,-0.031,-0.03,-0.03,-0.0277,-0.0273,-0.0264,-0.0229,-0.0228,-0.0252,-0.0251,-0.025,-0.0249,0,0,0,0,0,0,0,-0.0319,-0.0319,-0.0324,-0.0334,-0.0333,-0.0306,-0.0306,-0.0283,-0.0289,-0.0309,-0.0309,-0.0306,-0.0276,-0.0266,-0.0263,-0.0227,-0.0252,-0.025,-0.0249,-0.0248,-0.0186,-0.0185,0,0,0,0,0,0,-0.0329,-0.032,-0.0325,-0.0323,-0.0328,-0.0306,-0.0305,-0.0313,-0.029,-0.0287,-0.0305,-0.0306,-0.0269,-0.0265,-0.0262,-0.0244,-0.025,-0.0248,-0.0246,-0.0186,-0.0186,-0.0185,0,0,0,0,0,0,-0.0329,-0.033,-0.0326,-0.032,-0.0318,-0.0306,-0.0314,-0.0312,-0.0306,-0.0287,-0.0284,-0.0302,-0.027,-0.0265,-0.0244,-0.0242,-0.0247,-0.0245,-0.0186,-0.0186,-0.0185,-0.0199,0,0,0,0,0,0,-0.0329,-0.0331,-0.0337,-0.0322,-0.0319,-0.0311,-0.0314,-0.0311,-0.0303,-0.0303,-0.0282,-0.028,-0.027,-0.0247,-0.0242,-0.0239,-0.0243,-0.0187,-0.0186,-0.0185,-0.0199,-0.0199,-0.0199,0,0,0,0,0,-0.0329,-0.0345,-0.0338,-0.0338,-0.033,-0.0311,-0.0307,-0.0299,-0.0302,-0.0296,-0.0284,-0.028,-0.024,-0.0245,-0.0239,-0.0236,-0.0187,-0.0186,-0.0186,-0.0199,-0.0199,-0.0199,0,0,0,0,0,0,-0.0345,-0.0345,-0.0338,-0.0352,-0.033,-0.0311,-0.031,-0.0299,-0.0283,-0.0288,-0.0271,-0.0267,-0.0251,-0.0237,-0.0244,-0.0216,-0.0214,-0.0212,-0.0226,-0.0226,-0.0226,-0.0234,-0.0241,0,0,0,0,0,-0.035,-0.0363,-0.0344,-0.0353,-0.0347,-0.0325,-0.0317,-0.0308,-0.0293,-0.0287,-0.0268,-0.0253,-0.0241,-0.023,-0.0214,-0.0192,-0.0159,-0.0187,-0.0187,-0.0187,-0.0189,-0.0128,-0.0122,-0.0183,-0.0183,-0.0183,0,0,-0.0359,-0.0359,-0.0366,-0.0356,-0.0343,-0.0336,-0.0322,-0.0313,-0.0305,-0.0284,-0.0269,-0.0252,-0.0235,-0.0217,-0.0209,-0.0206,-0.0151,-0.0186,-0.0186,-0.0188,-0.0126,-0.012,-0.0115,-0.0182,-0.0182,-0.0182,0,0,-0.0383,-0.0381,-0.0398,-0.0381,-0.0363,-0.0346,-0.0344,-0.0318,-0.0307,-0.0283,-0.0273,-0.0249,-0.0224,-0.0208,-0.02,-0.0186,-0.0156,-0.0187,-0.0188,-0.0129,-0.0123,-0.0118,-0.0064,-0.0054,-0.0183,-0.0183,-0.0183,0,-0.0393,-0.0415,-0.0395,-0.0399,-0.0393,-0.0354,-0.036,-0.0336,-0.0303,-0.0289,-0.0283,-0.0235,-0.0219,-0.0198,-0.0199,-0.0186,-0.015,-0.0192,-0.0129,-0.0123,-0.0117,-0.0063,-0.0052,-0.0184,-0.0184,-0.0184,-0.0184,0,-0.0427,-0.0437,-0.0443,-0.0439,-0.0421,-0.0421,-0.0384,-0.0361,-0.0338,-0.0309,-0.0276,-0.0242,-0.0213,-0.0204,-0.02,-0.0158,-0.0144,-0.0138,-0.0129,-0.0112,-0.0056,-0.0044,-0.0185,-0.0185,-0.0184,-0.0184,0,0,-0.0475,-0.0473,-0.0475,-0.0483,-0.0447,-0.0443,-0.0415,-0.0385,-0.0367,-0.032,-0.0291,-0.026,-0.0229,-0.0217,-0.0196,-0.0147,-0.0075,-0.0129,-0.0126,-0.0077,0.0058,0.0084,0.01,-0.0055,-0.0053,-0.0051,0.0083,0,-0.0511,-0.0544,-0.0521,-0.0537,-0.0549,-0.0497,-0.0473,-0.0431,-0.0384,-0.0336,-0.0284,-0.025,-0.0237,-0.022,-0.0168,-0.0099,-0.0044,-0.0112,0.0035,0.0039,0.0059,0.0114,0.0107,0.0227,0.0095,0.0097,0.0098,0,-0.0554,-0.0573,-0.0606,-0.0597,-0.0596,-0.0586,-0.0543,-0.0517,-0.0429,-0.0387,-0.0327,-0.0274,-0.0201,-0.0189,-0.0051,-0.0094,-0.0023,0.0035,0.0042,0.0078,0.0087,0.0188,0.0255,0.0377,0.0117,0.0116,0.0114,0,-0.0618,-0.0631,-0.0667,-0.0665,-0.0641,-0.0636,-0.0614,-0.0535,-0.0507,-0.0414,-0.037,-0.0274,-0.0217,-0.0114,0.0005,-0.0016,0.0169,0.0159,0.0251,0.0253,0.0282,0.0284,0.0483,0.0263,0.0263,0.0263,0.0262,0,-0.0677,-0.0703,-0.0703,-0.0725,-0.0755,-0.07,-0.0696,-0.065,-0.056,-0.0518,-0.0408,-0.0348,-0.0193,-0.007,0.0025,0.0186,0.0192,0.0267,0.0298,0.0277,0.0277,0.041,0.0449,0.0268,0.0267,0.0266,0.0265,0,-0.0745,-0.0745,-0.079,-0.0789,-0.0791,-0.0812,-0.077,-0.0748,-0.0651,-0.0586,-0.0554,-0.0384,-0.0229,-0.0069,0.0118,0.0217,0.0433,0.041,0.0374,0.0398,0.058,0.0616,0.0831,0.089,0.0538,0.0539,0.054,0,-0.0787,-0.0819,-0.086,-0.0891,-0.0897,-0.0909,-0.0903,-0.0818,-0.0775,-0.0615,-0.058,-0.0403,-0.029,0.001,0.0216,0.042,0.0497,0.0552,0.0508,0.0613,0.0677,0.0699,0.0734,0.0546,0.0547,0.0548,0.0549,0,-0.0865,-0.0878,-0.092,-0.0985,-0.1007,-0.1023,-0.0998,-0.0974,-0.0848,-0.0775,-0.064,-0.0536,-0.0235,0.0017,0.0312,0.0422,0.0632,0.0578,0.0708,0.0724,0.0742,0.0805,0.043,0.0558,0.0557,0.0556,0.0556,0.0556,-0.0916,-0.097,-0.1017,-0.1072,-0.1101,-0.1103,-0.1098,-0.1043,-0.0981,-0.0836,-0.0722,-0.0544,-0.0137,0.0266,0.0414,0.0744,0.0708,0.0825,0.0869,0.0889,0.0927,0.0571,0.0714,0.0714,0.0714,0.0714,0.0714,0,-0.097,-0.1022,-0.1091,-0.1142,-0.1167,-0.1162,-0.1129,-0.1091,-0.1021,-0.0893,-0.0768,-0.0347,0.0033,0.0407,0.0892,0.1052,0.1063,0.112,0.1154,0.1181,0.0894,0.0874,0.1034,0.1034,0.1033,0.1033,0.1033,0.1033,-0.0999,-0.1079,-0.1112,-0.117,-0.1195,-0.119,-0.1164,-0.1113,-0.1012,-0.0805,-0.0578,-0.0398,0.0166,0.0952,0.137,0.1375,0.149,0.1455,0.1548,0.1345,0.132,0.1297,0.129,0.1535,0.1536,0.1804,0.1806,0.1808]}],[{"header":{"parameterUnit":"m.s-1","parameterCategory":2,"la1":30.2991,"la2":30.254,"lo1":-89.0895,"lo2":-89.0444,"dy":0.0017,"dx":0.0017,"nx":28,"ny":28,"refTime":"2024-09-01T21:00:00:Z","depth":"2","parameterNumber":2,"parameterNumberName":"U-component_of_CURRENTS"},"data":[0,0,0,0,0,0,0,0,0,0,0,0,0,0,0,0,0,0,0,0,0,0,0,0,0,0,0,0,0,0,0,0,0,0,0,0,0,0,0,0,0,0,0,0,0,0,0,0,0,0,0,0,0,0,0,0,0,0,-0.276,-0.276,0,-0.2735,-0.2734,-0.2734,-0.2664,-0.2662,-0.2661,-0.2659,-0.2606,-0.2606,-0.2606,0,0,0,0,0,0,0,0,0,0,0,0,0,-0.271,-0.2712,-0.276,-0.276,-0.2759,-0.2735,-0.2734,-0.2734,-0.2664,-0.2662,-0.266,-0.2658,-0.2606,-0.2606,-0.2606,0,0,0,0,0,0,0,0,0,0,0,0,0,-0.2714,-0.2712,-0.276,-0.2721,-0.2717,-0.2735,-0.2734,-0.2734,-0.2664,-0.2662,-0.266,-0.2658,-0.2606,-0.2606,-0.2606,-0.2653,0,0,-0.2606,-0.2606,0,0,0,0,0,0,0,0,-0.2713,-0.2715,-0.2727,-0.2724,-0.272,-0.27,-0.2697,-0.2705,-0.2665,-0.2685,-0.2659,-0.2656,-0.2636,-0.2634,-0.2635,-0.2651,-0.2648,-0.2606,-0.2606,-0.2606,-0.2606,0,0,0,0,0,0,0,-0.2713,-0.2716,-0.275,-0.2727,-0.2722,-0.2692,-0.269,-0.2698,-0.2674,-0.2683,-0.2678,-0.2675,-0.2634,-0.2635,-0.2633,-0.2648,-0.2606,-0.2606,-0.2606,-0.2606,-0.2658,-0.2659,0,0,0,0,0,0,-0.2721,-0.2717,-0.2751,-0.275,-0.271,-0.2695,-0.2693,-0.2709,-0.2674,-0.2667,-0.2677,-0.2672,-0.2636,-0.2633,-0.2631,-0.2671,-0.2606,-0.2606,-0.2606,-0.2657,-0.2658,-0.266,0,0,0,0,0,0,-0.272,-0.2725,-0.2752,-0.273,-0.2732,-0.2699,-0.2717,-0.2709,-0.2716,-0.267,-0.2661,-0.269,-0.2634,-0.2631,-0.2628,-0.2669,-0.2606,-0.2606,-0.2655,-0.2657,-0.2659,-0.276,0,0,0,0,0,0,-0.2719,-0.2726,-0.2743,-0.2732,-0.2733,-0.2763,-0.2719,-0.2711,-0.2717,-0.271,-0.2679,-0.2671,-0.2632,-0.2628,-0.2628,-0.2668,-0.2606,-0.2653,-0.2656,-0.2658,-0.2755,-0.2765,-0.2774,0,0,0,0,0,-0.2718,-0.2756,-0.2745,-0.2749,-0.2758,-0.2764,-0.2763,-0.273,-0.272,-0.2727,-0.2698,-0.2672,-0.2644,-0.2629,-0.2629,-0.267,-0.2652,-0.2655,-0.2658,-0.2751,-0.2763,-0.2774,0,0,0,0,0,0,-0.2751,-0.2752,-0.2739,-0.2778,-0.2769,-0.2752,-0.2767,-0.2751,-0.2739,-0.2742,-0.2691,-0.2681,-0.2689,-0.2671,-0.2656,-0.269,-0.2645,-0.2648,-0.2716,-0.2727,-0.2737,-0.2746,-0.2607,0,0,0,0,0,-0.2768,-0.2796,-0.2781,-0.2816,-0.2817,-0.28,-0.2802,-0.2788,-0.2774,-0.2768,-0.2736,-0.2716,-0.2706,-0.2707,-0.2687,-0.2721,-0.2683,-0.2746,-0.2755,-0.2764,-0.277,-0.2762,-0.2771,-0.267,-0.267,-0.2669,0,0,-0.2787,-0.2798,-0.2809,-0.2824,-0.2822,-0.2833,-0.2796,-0.282,-0.2829,-0.2768,-0.2773,-0.2746,-0.2718,-0.2733,-0.2739,-0.2724,-0.2767,-0.2768,-0.2775,-0.2777,-0.2766,-0.2776,-0.2785,-0.2672,-0.2671,-0.2671,0,0,-0.2828,-0.2856,-0.2874,-0.2878,-0.2885,-0.2885,-0.2897,-0.2885,-0.2879,-0.2887,-0.2841,-0.2839,-0.2823,-0.2808,-0.2802,-0.2862,-0.2809,-0.2861,-0.2932,-0.2924,-0.2933,-0.294,-0.2878,-0.2879,-0.2878,-0.2878,-0.2878,0,-0.2837,-0.2872,-0.288,-0.2896,-0.2916,-0.2912,-0.2937,-0.2939,-0.2923,-0.2933,-0.2897,-0.2882,-0.286,-0.2886,-0.2898,-0.2886,-0.2851,-0.2892,-0.2937,-0.2944,-0.2949,-0.2885,-0.2884,-0.2883,-0.2883,-0.2882,-0.2881,0,-0.287,-0.2904,-0.2928,-0.2948,-0.2977,-0.3009,-0.3015,-0.3034,-0.3035,-0.3026,-0.3039,-0.2998,-0.2986,-0.299,-0.2964,-0.3003,-0.2952,-0.2942,-0.291,-0.2965,-0.2893,-0.2891,-0.2891,-0.2889,-0.2887,-0.2886,0,0,-0.283,-0.2928,-0.2929,-0.2957,-0.3014,-0.3036,-0.3091,-0.3124,-0.3148,-0.3136,-0.3147,-0.3149,-0.3123,-0.3114,-0.3083,-0.3088,-0.3089,-0.3043,-0.304,-0.2984,-0.3033,-0.2951,-0.2939,-0.3091,-0.3091,-0.3092,-0.2958,0,-0.2831,-0.2894,-0.2956,-0.3019,-0.3039,-0.3102,-0.3151,-0.3194,-0.3207,-0.3209,-0.3202,-0.319,-0.3172,-0.3159,-0.3169,-0.309,-0.3092,-0.3124,-0.2986,-0.298,-0.2904,-0.2938,-0.2734,-0.2595,-0.2955,-0.2955,-0.2954,0,-0.2789,-0.285,-0.2916,-0.3048,-0.3069,-0.3117,-0.321,-0.325,-0.3285,-0.3294,-0.3304,-0.3272,-0.3263,-0.3235,-0.3168,-0.3185,-0.3131,-0.3078,-0.3072,-0.2961,-0.2896,-0.2602,-0.2576,-0.295,-0.295,-0.295,-0.2951,0,-0.2702,-0.2813,-0.2879,-0.2912,-0.3048,-0.3107,-0.3188,-0.326,-0.3268,-0.3321,-0.3307,-0.3321,-0.3268,-0.3238,-0.3145,-0.3152,-0.3048,-0.3037,-0.2915,-0.2905,-0.2686,-0.2657,-0.3019,-0.3019,-0.302,-0.302,-0.3021,0,-0.2646,-0.2682,-0.2835,-0.2866,-0.2929,-0.3059,-0.3127,-0.3199,-0.3248,-0.3227,-0.3319,-0.3264,-0.327,-0.3206,-0.3149,-0.3007,-0.3051,-0.2923,-0.2879,-0.2712,-0.2689,-0.2968,-0.2964,-0.3015,-0.3016,-0.3017,-0.3018,0,-0.2483,-0.2599,-0.2657,-0.2833,-0.2876,-0.2904,-0.3046,-0.306,-0.3164,-0.3122,-0.3125,-0.3174,-0.3102,-0.3092,-0.301,-0.2969,-0.2874,-0.2828,-0.2612,-0.2547,-0.2725,-0.2728,-0.265,-0.2647,-0.2643,-0.2641,-0.2639,0,-0.2409,-0.2422,-0.2583,-0.2605,-0.2673,-0.2755,-0.2789,-0.295,-0.295,-0.3023,-0.2955,-0.2949,-0.2883,-0.2776,-0.2724,-0.2627,-0.2735,-0.241,-0.2413,-0.2729,-0.2694,-0.2702,-0.2708,-0.2135,-0.2129,-0.2124,-0.212,0,-0.2244,-0.2298,-0.2359,-0.2407,-0.245,-0.25,-0.2579,-0.2563,-0.2705,-0.2691,-0.2647,-0.262,-0.2579,-0.2415,-0.2382,-0.2301,-0.2417,-0.2303,-0.2677,-0.2286,-0.224,-0.2207,-0.2231,-0.2075,-0.2079,-0.2083,-0.2085,-0.2087,-0.2101,-0.209,-0.2176,-0.2181,-0.223,-0.2226,-0.2208,-0.2277,-0.2248,-0.2221,-0.2297,-0.2231,-0.2252,-0.2081,-0.1984,-0.1947,-0.2098,-0.2023,-0.2039,-0.2061,-0.2052,-0.2006,-0.179,-0.1793,-0.1796,-0.1798,-0.1799,0,-0.1905,-0.193,-0.1951,-0.1979,-0.1933,-0.2031,-0.2031,-0.1979,-0.1889,-0.192,-0.1885,-0.1716,-0.1641,-0.1684,-0.1561,-0.1554,-0.1551,-0.1487,-0.1483,-0.1527,-0.1567,-0.1535,-0.1135,-0.1133,-0.1131,-0.113,0,0,-0.1819,-0.1761,-0.1772,-0.1657,-0.1674,-0.1572,-0.1533,-0.1484,-0.149,-0.1403,-0.139,-0.1525,-0.1613,-0.1362,-0.1312,-0.1206,-0.1351,-0.1145,-0.1673,-0.1708,-0.1745,-0.1864,-0.1863,0,0,0,0,0]},{"header":{"parameterUnit":"m.s-1","parameterCategory":2,"la1":30.2991,"la2":30.254,"lo1":-89.0895,"lo2":-89.0444,"dy":0.0017,"dx":0.0017,"nx":28,"ny":28,"refTime":"2024-09-01T21:00:00:Z","depth":"2","parameterNumber":3,"parameterNumberName":"V-component_of_CURRENTS"},"data":[0,0,0,0,0,0,0,0,0,0,0,0,0,0,0,0,0,0,0,0,0,0,0,0,0,0,0,0,0,0,0,0,0,0,0,0,0,0,0,0,0,0,0,0,0,0,0,0,0,0,0,0,0,0,0,0,0,0,-0.0086,-0.0086,0,-0.0026,-0.0025,-0.0024,0.0005,0.0004,0.0004,0.0004,0.0037,0.0038,0.0039,0,0,0,0,0,0,0,0,0,0,0,0,0,-0.0092,-0.0093,-0.0086,-0.0086,-0.0085,-0.0026,-0.0025,-0.0024,0.0005,0.0004,0.0004,0.0004,0.0037,0.0038,0.004,0,0,0,0,0,0,0,0,0,0,0,0,0,-0.0065,-0.0093,-0.0086,-0.0065,-0.0062,-0.0026,-0.0025,-0.0024,0.0005,0.0004,0.0004,0.0004,0.0037,0.0038,0.004,0.0055,0,0,0.0045,0.0045,0,0,0,0,0,0,0,0,-0.0067,-0.0065,-0.0069,-0.0066,-0.0064,-0.002,-0.0015,0.0001,0.0005,-0.0019,0.0004,0.0004,0.0015,0.0018,0.0033,0.0056,0.0058,0.0045,0.0046,0.0046,0.0047,0,0,0,0,0,0,0,-0.0069,-0.0067,-0.0061,-0.0068,-0.0065,-0.003,-0.0027,-0.0011,-0.0001,-0.0017,-0.0015,-0.0011,0.0016,0.0031,0.0034,0.0058,0.0045,0.0046,0.0047,0.0048,0.0099,0.01,0,0,0,0,0,0,-0.0084,-0.0069,-0.0063,-0.0059,-0.0068,-0.003,-0.0026,-0.0032,-0.0,0.0004,-0.0011,-0.001,0.0029,0.0032,0.0035,0.0039,0.0046,0.0048,0.0049,0.0099,0.01,0.01,0,0,0,0,0,0,-0.0085,-0.0085,-0.0065,-0.0063,-0.0059,-0.003,-0.0037,-0.0031,-0.0023,0.0005,0.0009,-0.001,0.0029,0.0033,0.0064,0.0041,0.0049,0.005,0.0099,0.0099,0.01,0.0057,0,0,0,0,0,0,-0.0085,-0.0085,-0.0098,-0.0065,-0.0059,-0.0048,-0.0036,-0.003,-0.0021,-0.0019,0.0007,0.001,0.0029,0.0062,0.0065,0.0043,0.0051,0.0098,0.0099,0.01,0.0058,0.0056,0.0055,0,0,0,0,0,-0.0086,-0.0109,-0.01,-0.0099,-0.0078,-0.0048,-0.0041,-0.002,-0.0021,-0.0015,0.0015,0.0009,0.0068,0.0064,0.0068,0.0046,0.0098,0.0099,0.01,0.0059,0.0057,0.0055,0,0,0,0,0,0,-0.0125,-0.0107,-0.0096,-0.0115,-0.0083,-0.0044,-0.0047,-0.0027,0.0002,-0.0003,0.0025,0.0032,0.0045,0.0062,0.0056,0.0066,0.0077,0.0079,0.0045,0.0043,0.0041,0.0035,0.0053,0,0,0,0,0,-0.0138,-0.015,-0.0114,-0.0129,-0.0119,-0.0083,-0.0072,-0.0052,-0.0022,-0.0011,0.0014,0.0037,0.0054,0.0062,0.0083,0.0095,0.0126,0.0082,0.008,0.0079,0.0078,0.0123,0.0125,0.0103,0.0103,0.0103,0,0,-0.0156,-0.0151,-0.0157,-0.0138,-0.0118,-0.01,-0.0077,-0.0065,-0.005,-0.0012,0.0009,0.0032,0.0058,0.0073,0.0078,0.0082,0.0104,0.008,0.0078,0.0079,0.0125,0.0127,0.0129,0.0104,0.0104,0.0104,0,0,-0.0194,-0.0195,-0.021,-0.0181,-0.0153,-0.0127,-0.0126,-0.0083,-0.0067,-0.0034,-0.001,0.0013,0.0042,0.0063,0.0073,0.0078,0.0094,0.0069,0.0051,0.0094,0.0096,0.0099,0.0145,0.0152,0.0066,0.0066,0.0066,0,-0.0217,-0.0233,-0.0207,-0.0199,-0.019,-0.0143,-0.0142,-0.0109,-0.0058,-0.0048,-0.0035,0.0019,0.0038,0.0057,0.0057,0.0071,0.0101,0.0051,0.0091,0.0094,0.0097,0.0145,0.0152,0.0064,0.0064,0.0064,0.0065,0,-0.025,-0.0256,-0.0263,-0.0242,-0.0221,-0.0217,-0.0165,-0.0142,-0.0122,-0.0086,-0.0058,-0.001,0.002,0.0022,0.0039,0.0058,0.0075,0.0083,0.0091,0.0096,0.0147,0.0155,0.0061,0.0062,0.0062,0.0063,0,0,-0.0317,-0.0295,-0.0297,-0.0301,-0.0249,-0.0243,-0.0212,-0.018,-0.0169,-0.0113,-0.0094,-0.0056,-0.0028,-0.0012,0.0013,0.0048,0.0093,0.0066,0.0069,0.0105,0.0192,0.0205,0.0217,0.0105,0.0106,0.0107,0.022,0,-0.0355,-0.0377,-0.0344,-0.0354,-0.0361,-0.0303,-0.0278,-0.0235,-0.0192,-0.0151,-0.0098,-0.0068,-0.0042,-0.0032,0.001,0.0074,0.0114,0.0062,0.019,0.0194,0.0198,0.0226,0.0194,0.0292,0.0229,0.0231,0.0232,0,-0.0394,-0.041,-0.0436,-0.0427,-0.0425,-0.041,-0.0381,-0.0351,-0.0267,-0.0232,-0.0175,-0.0119,-0.0055,-0.0035,0.0088,0.0052,0.0115,0.0169,0.0175,0.0207,0.0223,0.0278,0.0311,0.0247,0.0246,0.0245,0.0244,0,-0.0475,-0.0474,-0.0515,-0.0505,-0.0473,-0.0475,-0.0456,-0.0382,-0.0365,-0.0277,-0.0248,-0.0151,-0.0103,-0.0005,0.0112,0.01,0.0253,0.0255,0.033,0.0333,0.0341,0.0342,0.0339,0.0339,0.0339,0.0338,0.0338,0,-0.0535,-0.0561,-0.0556,-0.0575,-0.0616,-0.0553,-0.0566,-0.0522,-0.0445,-0.042,-0.0302,-0.0256,-0.0095,0.0016,0.0115,0.0258,0.0262,0.0338,0.0365,0.0326,0.0324,0.031,0.0305,0.0343,0.0342,0.0341,0.034,0,-0.0605,-0.0602,-0.0648,-0.0649,-0.0656,-0.0681,-0.0655,-0.0641,-0.0559,-0.0515,-0.0489,-0.0327,-0.018,-0.0014,0.0161,0.026,0.0393,0.0437,0.0384,0.0402,0.0444,0.0436,0.0543,0.0544,0.0545,0.0546,0.0547,0,-0.0643,-0.0676,-0.0725,-0.076,-0.0764,-0.0785,-0.0786,-0.0718,-0.0688,-0.0562,-0.0541,-0.0381,-0.0266,0.0016,0.0218,0.0422,0.0417,0.0512,0.0483,0.0451,0.0466,0.0456,0.0446,0.0485,0.0486,0.0486,0.0486,0,-0.0715,-0.0733,-0.0775,-0.085,-0.088,-0.0907,-0.0897,-0.0891,-0.0787,-0.073,-0.0616,-0.0515,-0.0236,0.0002,0.0279,0.0386,0.0481,0.0523,0.052,0.0428,0.0403,0.0416,0.0408,0.0488,0.0488,0.0488,0.0488,0.0488,-0.0764,-0.0816,-0.087,-0.093,-0.0971,-0.099,-0.0993,-0.0954,-0.0912,-0.0787,-0.069,-0.0513,-0.0265,0.0118,0.0314,0.0508,0.0502,0.0559,0.0556,0.0553,0.0516,0.0493,0.0589,0.0589,0.0589,0.059,0.059,0,-0.0812,-0.0865,-0.0939,-0.1001,-0.1033,-0.104,-0.103,-0.0993,-0.0933,-0.0823,-0.0703,-0.0445,-0.0171,0.0079,0.0389,0.0571,0.0549,0.0591,0.0539,0.0536,0.0534,0.0493,0.0562,0.0562,0.0562,0.0563,0,0,-0.0841,-0.0917,-0.0951,-0.102,-0.1055,-0.1064,-0.1048,-0.0998,-0.0909,-0.0797,-0.0665,-0.0481,-0.0169,0.0046,0.0273,0.0435,0.0432,0.0437,0.0441,0.035,0.0345,0.0498,0.043,0,0,0,0,0]}],[{"header":{"parameterUnit":"m.s-1","parameterCategory":2,"la1":30.2991,"la2":30.254,"lo1":-89.0895,"lo2":-89.0444,"dy":0.0017,"dx":0.0017,"nx":28,"ny":28,"refTime":"2024-09-01T21:00:00:Z","depth":"4","parameterNumber":2,"parameterNumberName":"U-component_of_CURRENTS"},"data":[0,0,0,0,0,0,0,0,0,0,0,0,0,0,0,0,0,0,0,0,0,0,0,0,0,0,0,0,0,0,0,0,0,0,0,0,0,0,0,0,0,0,0,0,0,0,0,0,0,0,0,0,0,0,0,0,0,0,-0.0728,-0.0729,0,-0.0821,-0.0822,-0.0823,-0.0868,-0.0868,-0.0868,-0.0868,-0.0953,-0.0955,-0.0957,0,0,0,0,0,0,0,0,0,0,0,0,0,-0.0605,-0.0607,-0.0728,-0.0729,-0.0731,-0.0821,-0.0822,-0.0823,-0.0868,-0.0868,-0.0868,-0.0869,-0.0952,-0.0955,-0.0957,0,0,0,0,0,0,0,0,0,0,0,0,0,-0.0672,-0.0607,-0.0728,-0.0766,-0.0771,-0.082,-0.0822,-0.0823,-0.0868,-0.0868,-0.0868,-0.0869,-0.0952,-0.0955,-0.0958,-0.097,0,0,-0.0967,-0.0968,0,0,0,0,0,0,0,0,-0.0668,-0.0676,-0.0759,-0.0764,-0.0769,-0.0835,-0.081,-0.0873,-0.0868,-0.0828,-0.0868,-0.0869,-0.0914,-0.092,-0.0934,-0.0974,-0.0978,-0.0967,-0.0969,-0.097,-0.0971,0,0,0,0,0,0,0,-0.0663,-0.0672,-0.0762,-0.0761,-0.0766,-0.0784,-0.0793,-0.0822,-0.0866,-0.0832,-0.0836,-0.085,-0.0917,-0.0931,-0.0936,-0.0979,-0.0967,-0.097,-0.0972,-0.0973,-0.1122,-0.1124,0,0,0,0,0,0,-0.0656,-0.0668,-0.0759,-0.0765,-0.0721,-0.0786,-0.0796,-0.0812,-0.0866,-0.0876,-0.085,-0.0852,-0.0925,-0.0932,-0.0939,-0.1044,-0.097,-0.0973,-0.0975,-0.112,-0.1122,-0.1125,0,0,0,0,0,0,-0.0653,-0.0663,-0.0756,-0.0721,-0.0734,-0.0788,-0.0804,-0.0813,-0.0841,-0.088,-0.0889,-0.087,-0.0926,-0.0935,-0.0985,-0.1045,-0.0975,-0.0977,-0.1117,-0.1121,-0.1124,-0.1199,0,0,0,0,0,0,-0.0649,-0.0662,-0.0682,-0.072,-0.0736,-0.0785,-0.0805,-0.0815,-0.085,-0.0854,-0.0901,-0.0908,-0.0927,-0.098,-0.0988,-0.1047,-0.098,-0.1115,-0.1119,-0.1123,-0.1193,-0.1204,-0.1213,0,0,0,0,0,-0.0644,-0.0662,-0.0682,-0.0694,-0.0758,-0.0785,-0.0795,-0.0832,-0.085,-0.0859,-0.0904,-0.0908,-0.1012,-0.0984,-0.0993,-0.1055,-0.1113,-0.1118,-0.1122,-0.1189,-0.1202,-0.1213,0,0,0,0,0,0,-0.0622,-0.067,-0.0692,-0.0726,-0.0756,-0.0794,-0.0819,-0.0838,-0.088,-0.0892,-0.0925,-0.0936,-0.1002,-0.1013,-0.0982,-0.1109,-0.1067,-0.1073,-0.1115,-0.1127,-0.1136,-0.12,-0.0982,0,0,0,0,0,-0.0626,-0.0655,-0.0694,-0.0725,-0.0742,-0.0783,-0.0805,-0.0824,-0.0862,-0.0881,-0.0923,-0.0973,-0.1027,-0.1062,-0.1094,-0.1161,-0.1163,-0.1209,-0.1219,-0.1227,-0.1285,-0.1228,-0.1238,-0.114,-0.114,-0.114,0,0,-0.0631,-0.066,-0.068,-0.0723,-0.0756,-0.079,-0.0797,-0.0828,-0.0875,-0.0884,-0.0967,-0.0997,-0.1046,-0.1124,-0.1157,-0.1146,-0.1274,-0.1233,-0.124,-0.1295,-0.1234,-0.1243,-0.1251,-0.1144,-0.1143,-0.1142,0,0,-0.0643,-0.0677,-0.0703,-0.0732,-0.0776,-0.08,-0.081,-0.0855,-0.0896,-0.097,-0.0994,-0.106,-0.1144,-0.1195,-0.1233,-0.1315,-0.1311,-0.133,-0.1452,-0.1395,-0.1402,-0.1408,-0.1494,-0.1506,-0.1351,-0.1352,-0.1352,0,-0.0642,-0.0686,-0.0713,-0.0747,-0.0773,-0.0807,-0.0833,-0.0888,-0.0948,-0.0982,-0.1008,-0.1138,-0.1188,-0.1281,-0.1364,-0.134,-0.135,-0.14,-0.1405,-0.1411,-0.1416,-0.1501,-0.1514,-0.1356,-0.1355,-0.1355,-0.1354,0,-0.0669,-0.0716,-0.0734,-0.0791,-0.0817,-0.0844,-0.0907,-0.0954,-0.1014,-0.1062,-0.1159,-0.1233,-0.1313,-0.1353,-0.1427,-0.1506,-0.1521,-0.1402,-0.137,-0.143,-0.1517,-0.153,-0.1362,-0.136,-0.1359,-0.1358,0,0,-0.0668,-0.0729,-0.0741,-0.078,-0.0838,-0.0861,-0.0941,-0.1006,-0.1105,-0.1157,-0.1264,-0.1398,-0.1432,-0.1485,-0.1534,-0.1573,-0.1681,-0.1565,-0.156,-0.1649,-0.1669,-0.1528,-0.1528,-0.1537,-0.1538,-0.1539,-0.1742,0,-0.0688,-0.072,-0.0751,-0.0823,-0.0868,-0.0912,-0.1006,-0.1073,-0.1175,-0.1296,-0.1343,-0.1477,-0.1475,-0.1578,-0.1589,-0.1664,-0.1708,-0.1646,-0.1605,-0.1608,-0.1465,-0.1533,-0.1541,-0.1751,-0.1753,-0.1755,-0.1757,0,-0.0745,-0.0756,-0.0797,-0.0879,-0.0901,-0.0944,-0.1082,-0.1169,-0.132,-0.1429,-0.1502,-0.1559,-0.1689,-0.1658,-0.1739,-0.1697,-0.1728,-0.176,-0.1761,-0.1616,-0.1485,-0.1661,-0.1779,-0.1777,-0.1775,-0.1774,-0.1773,0,-0.0769,-0.0814,-0.0837,-0.0863,-0.0957,-0.099,-0.1031,-0.1191,-0.1305,-0.1517,-0.1618,-0.1703,-0.1775,-0.1782,-0.1844,-0.1816,-0.1912,-0.182,-0.1716,-0.1712,-0.1745,-0.1735,-0.1846,-0.1845,-0.1845,-0.1844,-0.1844,0,-0.0808,-0.0845,-0.0852,-0.0882,-0.0969,-0.1011,-0.1162,-0.1266,-0.1432,-0.1541,-0.1667,-0.1755,-0.1802,-0.183,-0.1881,-0.1844,-0.1886,-0.1796,-0.1733,-0.1786,-0.1777,-0.1759,-0.1746,-0.1852,-0.185,-0.1849,-0.1847,0,-0.0857,-0.0866,-0.0927,-0.0969,-0.1008,-0.1064,-0.1192,-0.1283,-0.1473,-0.1614,-0.1676,-0.1808,-0.1865,-0.1893,-0.1959,-0.186,-0.1881,-0.1839,-0.2023,-0.1957,-0.1752,-0.1742,-0.1805,-0.1801,-0.1798,-0.1796,-0.1793,0,-0.086,-0.0908,-0.0978,-0.1007,-0.102,-0.1115,-0.1178,-0.1331,-0.1384,-0.1605,-0.1601,-0.1743,-0.1802,-0.1816,-0.1852,-0.1909,-0.1841,-0.1866,-0.1743,-0.1806,-0.1739,-0.1734,-0.1728,-0.1788,-0.1787,-0.1787,-0.1786,0,-0.0877,-0.0925,-0.0938,-0.1,-0.1041,-0.1116,-0.1146,-0.1212,-0.1349,-0.1506,-0.1566,-0.1639,-0.1681,-0.1739,-0.177,-0.1784,-0.1868,-0.1833,-0.1839,-0.1724,-0.1786,-0.1721,-0.1719,-0.1775,-0.1776,-0.1777,-0.1778,0,-0.0875,-0.088,-0.0902,-0.0956,-0.101,-0.1024,-0.1098,-0.1096,-0.1204,-0.1372,-0.1383,-0.1539,-0.1649,-0.1674,-0.1704,-0.1711,-0.1687,-0.1622,-0.1638,-0.1651,-0.149,-0.1539,-0.1438,0,0,0,0,0,-0.085,-0.0825,-0.0836,-0.0865,-0.0904,-0.0944,-0.1014,-0.107,-0.1188,-0.1187,-0.1294,-0.135,-0.1444,-0.1529,-0.1507,-0.1619,-0.1676,-0.1583,-0.1605,-0.1713,-0.1726,-0.1541,0,0,0,0,0,0,-0.0819,-0.082,-0.0796,-0.0767,-0.0776,-0.0804,-0.0859,-0.0941,-0.0944,-0.1087,-0.1151,-0.1256,-0.1367,-0.1451,-0.1483,-0.1501,-0.1482,-0.1673,-0.1669,-0.1706,-0.1717,-0.1728,-0.1542,0,0,0,0,0]},{"header":{"parameterUnit":"m.s-1","parameterCategory":2,"la1":30.2991,"la2":30.254,"lo1":-89.0895,"lo2":-89.0444,"dy":0.0017,"dx":0.0017,"nx":28,"ny":28,"refTime":"2024-09-01T21:00:00:Z","depth":"4","parameterNumber":3,"parameterNumberName":"V-component_of_CURRENTS"},"data":[0,0,0,0,0,0,0,0,0,0,0,0,0,0,0,0,0,0,0,0,0,0,0,0,0,0,0,0,0,0,0,0,0,0,0,0,0,0,0,0,0,0,0,0,0,0,0,0,0,0,0,0,0,0,0,0,0,0,-0.0221,-0.0221,0,-0.0212,-0.0212,-0.0212,-0.0179,-0.0178,-0.0178,-0.0177,-0.0117,-0.0116,-0.0115,0,0,0,0,0,0,0,0,0,0,0,0,0,-0.0181,-0.0182,-0.0221,-0.0221,-0.0221,-0.0212,-0.0212,-0.0212,-0.0179,-0.0178,-0.0177,-0.0176,-0.0117,-0.0116,-0.0115,0,0,0,0,0,0,0,0,0,0,0,0,0,-0.0189,-0.0183,-0.0221,-0.0203,-0.0201,-0.0212,-0.0212,-0.0212,-0.0179,-0.0178,-0.0177,-0.0176,-0.0118,-0.0116,-0.0115,-0.0132,0,0,-0.0111,-0.0111,0,0,0,0,0,0,0,0,-0.0188,-0.019,-0.0206,-0.0204,-0.0202,-0.0195,-0.0176,-0.0182,-0.018,-0.0189,-0.0177,-0.0175,-0.0139,-0.0136,-0.0138,-0.0129,-0.0126,-0.0111,-0.011,-0.011,-0.011,0,0,0,0,0,0,0,-0.0188,-0.019,-0.0218,-0.0206,-0.0203,-0.0185,-0.0185,-0.0177,-0.017,-0.0188,-0.0185,-0.0183,-0.0137,-0.014,-0.0137,-0.0125,-0.0111,-0.011,-0.0109,-0.0109,-0.0111,-0.0111,0,0,0,0,0,0,-0.0191,-0.019,-0.0218,-0.0218,-0.0191,-0.0187,-0.0187,-0.0199,-0.0171,-0.0166,-0.0184,-0.0182,-0.0143,-0.0138,-0.0134,-0.0136,-0.011,-0.0109,-0.0108,-0.011,-0.0111,-0.0112,0,0,0,0,0,0,-0.019,-0.0194,-0.0219,-0.0202,-0.0204,-0.0189,-0.0203,-0.0199,-0.0198,-0.0169,-0.0163,-0.0185,-0.0141,-0.0136,-0.0124,-0.0134,-0.0108,-0.0107,-0.0109,-0.011,-0.0111,-0.0149,0,0,0,0,0,0,-0.019,-0.0194,-0.0205,-0.0203,-0.0205,-0.0227,-0.0204,-0.02,-0.0199,-0.0195,-0.0168,-0.0162,-0.014,-0.0126,-0.0123,-0.0131,-0.0106,-0.0108,-0.0109,-0.0111,-0.0147,-0.0151,-0.0155,0,0,0,0,0,-0.0188,-0.0204,-0.0206,-0.0209,-0.022,-0.0227,-0.0227,-0.0212,-0.02,-0.0205,-0.0183,-0.0162,-0.0133,-0.0126,-0.0122,-0.013,-0.0107,-0.0109,-0.0111,-0.0145,-0.0151,-0.0155,0,0,0,0,0,0,-0.0181,-0.0203,-0.0204,-0.0223,-0.0226,-0.0221,-0.0224,-0.0217,-0.0207,-0.02,-0.0171,-0.0164,-0.0162,-0.0143,-0.0135,-0.0137,-0.0118,-0.0119,-0.0145,-0.0151,-0.0155,-0.0118,-0.0105,0,0,0,0,0,-0.019,-0.0215,-0.0221,-0.0236,-0.024,-0.0235,-0.0236,-0.0228,-0.0219,-0.0213,-0.0194,-0.0176,-0.0169,-0.0156,-0.0149,-0.0145,-0.0106,-0.0149,-0.0154,-0.0157,-0.0126,-0.011,-0.0109,-0.0118,-0.0118,-0.0118,0,0,-0.0192,-0.0205,-0.0219,-0.0238,-0.0239,-0.0254,-0.0233,-0.0238,-0.0248,-0.0209,-0.0212,-0.0195,-0.0175,-0.0173,-0.017,-0.0154,-0.0133,-0.016,-0.0163,-0.0128,-0.0112,-0.011,-0.0109,-0.0119,-0.0119,-0.0118,0,0,-0.0209,-0.0221,-0.0249,-0.0257,-0.0265,-0.0266,-0.027,-0.0269,-0.0265,-0.0269,-0.0245,-0.0231,-0.0219,-0.0203,-0.0195,-0.022,-0.0165,-0.0218,-0.0198,-0.0184,-0.0183,-0.0181,-0.012,-0.0112,-0.0211,-0.0211,-0.0211,0,-0.0208,-0.0246,-0.0254,-0.0276,-0.0285,-0.0275,-0.0297,-0.0298,-0.0291,-0.0289,-0.0274,-0.0254,-0.0236,-0.0229,-0.0217,-0.0229,-0.0184,-0.0181,-0.0188,-0.0186,-0.0183,-0.0121,-0.0112,-0.0213,-0.0213,-0.0213,-0.0212,0,-0.0245,-0.0273,-0.0286,-0.032,-0.033,-0.0345,-0.0349,-0.0357,-0.035,-0.034,-0.0333,-0.0304,-0.0284,-0.0282,-0.0241,-0.0218,-0.0178,-0.0205,-0.0171,-0.0184,-0.0118,-0.0108,-0.0216,-0.0215,-0.0215,-0.0214,0,0,-0.025,-0.0305,-0.0309,-0.0338,-0.0354,-0.0371,-0.039,-0.0404,-0.041,-0.0394,-0.0389,-0.0359,-0.0321,-0.0305,-0.0271,-0.0225,-0.0161,-0.0178,-0.0176,-0.0107,-0.0075,-0.0081,-0.007,-0.018,-0.0179,-0.0178,-0.0032,0,-0.0277,-0.0331,-0.0351,-0.0403,-0.0429,-0.0436,-0.046,-0.0466,-0.0449,-0.0439,-0.0404,-0.0383,-0.0341,-0.0312,-0.0269,-0.0185,-0.0136,-0.0194,-0.0078,-0.0073,-0.0072,-0.006,-0.0174,-0.0024,-0.0022,-0.002,-0.0019,0,-0.0307,-0.0341,-0.0394,-0.0456,-0.0469,-0.0499,-0.0526,-0.0542,-0.0521,-0.0499,-0.0459,-0.0416,-0.0337,-0.0313,-0.0177,-0.0206,-0.0126,-0.0064,-0.0059,-0.0036,-0.0061,-0.0012,0.0,-0.0001,-0.0003,-0.0004,-0.0005,0,-0.0313,-0.0376,-0.0424,-0.0442,-0.0501,-0.0533,-0.056,-0.0557,-0.0569,-0.0515,-0.0497,-0.0418,-0.0374,-0.0269,-0.0135,-0.0138,0.0021,-0.0,0.0065,0.0067,0.0047,0.0043,0.0086,0.0086,0.0086,0.0085,0.0085,0,-0.0339,-0.0381,-0.0436,-0.0467,-0.0533,-0.0554,-0.0601,-0.0609,-0.0596,-0.0593,-0.0521,-0.0487,-0.0355,-0.0258,-0.0131,0.001,0.0006,0.0099,0.0102,0.0028,0.002,0.0055,0.005,0.0091,0.0089,0.0088,0.0087,0,-0.0351,-0.0384,-0.0448,-0.0515,-0.0545,-0.0587,-0.0651,-0.0667,-0.0647,-0.0633,-0.0612,-0.0523,-0.0378,-0.0251,-0.007,-0.0003,0.0137,0.0175,0.013,0.0123,0.0187,0.0178,0.029,0.0291,0.0291,0.0292,0.0293,0,-0.0368,-0.0399,-0.0483,-0.0527,-0.0568,-0.063,-0.0672,-0.0688,-0.0688,-0.065,-0.0637,-0.0517,-0.0436,-0.0183,-0.005,0.017,0.0178,0.0251,0.0206,0.0216,0.0208,0.0197,0.0187,0.0294,0.0294,0.0294,0.0295,0,-0.0398,-0.0424,-0.0472,-0.0554,-0.0615,-0.0677,-0.0726,-0.0733,-0.0727,-0.0717,-0.0628,-0.0504,-0.0355,-0.0169,-0.0013,0.0136,0.021,0.026,0.026,0.0218,0.0222,0.0211,0.02,0.0297,0.0297,0.0297,0.0297,0,-0.0415,-0.0448,-0.0507,-0.0583,-0.0651,-0.0697,-0.0727,-0.0723,-0.0727,-0.0678,-0.0644,-0.0488,-0.0399,-0.0186,-0.0036,0.0107,0.0141,0.0174,0.0178,0.0176,0.0082,0.0067,0.012,0,0,0,0,0,-0.0432,-0.0473,-0.0538,-0.0614,-0.0672,-0.0713,-0.0753,-0.0763,-0.0755,-0.0691,-0.0667,-0.0518,-0.0294,-0.0201,-0.0054,-0.0024,0.0158,0.015,0.0196,0.0313,0.031,0.0215,0,0,0,0,0,0,-0.0445,-0.0504,-0.0534,-0.0615,-0.0667,-0.0727,-0.0747,-0.0744,-0.0702,-0.0676,-0.0551,-0.0496,-0.0273,-0.0374,-0.0055,-0.0014,0.0032,0.0253,0.0256,0.0315,0.0312,0.0309,0.0211,0,0,0,0,0]}]]